Location: 22
(39.7117°N, 89.5929°W)
Time: 18:25:59
(UTC-05:00)

Vanguard 3 - Pass Details

Date: 08 February 2023
Orbit: 508 x 3249 km, 33.4° (Epoch: 30 March)

Event Time Altitude Azimuth Distance (km) Brightness Sun altitude
Rises 01:26:04 0° 271° (W) 6,345 - -60.6°
Reaches altitude 10° 01:32:48 10° 252° (WSW) 5,759 - -59.7°
Maximum altitude 01:41:36 16° 223° (SW) 5,613 - -58.6°
Drops below altitude 10° 01:51:03 10° 194° (SSW) 6,171 - -57.3°
Sets 01:59:03 0° 175° (S) 7,022 - -56.1°
